Zurück zum Katalog

SCOUT A DEB

AktivPO
NORAD 2353·DEBRIS·🇺🇸 United States

Gestartet Mar 26, 1966 von Vandenberg Space Force Base

Loading…

Nächste Überflüge (nächste 24 Stunden)

TLE

AktuellSource: Space-Track

Epoche: Sep 14, 2026, 06:39 UTC

1 02353U 66024C   26257.27725016  .00000213  00000-0  18466-3 0  9997
2 02353  89.4056   8.1620 0152348 160.1658 200.5522 13.77564337 27263

Verfolge SCOUT A DEB in Echtzeit mit AllMySat

Download on the App Store